| time (UTC) | temp C | wind direction | speed KPH | gust KPH | rain 1hr cm | rain 24hr cm | rain mn cm | humidity % | barometer mb |
| 20260901102406 | 19 | 292 | 0.0 | 0.0 | 0.00 | 0.53 | 0.00 | 69 | 1018.8 |
| 20260901101408 | 19 | 292 | 0.0 | 0.0 | 0.00 | 0.53 | 0.00 | 70 | 1019.0 |
| 20260901101322 | 19 | 292 | 0.0 | 0.0 | 0.00 | 0.53 | 0.00 | 69 | 1019.0 |
| 20260901100308 | 19 | 360 | 0.0 | 0.0 | 0.00 | 0.53 | 0.00 | 70 | 1018.9 |
| 20260901095407 | 19 | 15 | 1.6 | 3.2 | 0.00 | 0.53 | 0.00 | 70 | 1019.0 |
| 20260901094406 | 18 | 337 | 1.6 | 3.2 | 0.00 | 0.53 | 0.00 | 70 | 1018.9 |
| 20260901093421 | 19 | 360 | 0.0 | 0.0 | 0.00 | 0.53 | 0.00 | 69 | 1019.1 |
| 20260901092505 | 19 | 360 | 0.0 | 0.0 | 0.00 | 0.53 | 0.00 | 70 | 1019.0 |
| 20260901090606 | 19 | 360 | 1.6 | 3.2 | 0.00 | 0.53 | 0.00 | 70 | 1019.1 |
| 20260901085621 | 19 | 360 | 0.0 | 0.0 | 0.00 | 0.53 | 0.00 | 70 | 1019.2 |
| 20260901084706 | 19 | 360 | 0.0 | 0.0 | 0.00 | 0.53 | 0.00 | 69 | 1019.3 |
| 20260901084623 | 19 | 360 | 0.0 | 0.0 | 0.00 | 0.53 | 0.00 | 68 | 1019.3 |
| 20260901083624 | 19 | 360 | 0.0 | 0.0 | 0.00 | 0.53 | 0.00 | 67 | 1019.3 |
| 20260901082721 | 20 | 360 | 0.0 | 0.0 | 0.00 | 0.53 | 0.00 | 66 | 1019.4 |
| 20260901081722 | 20 | 360 | 1.6 | 3.2 | 0.00 | 0.53 | 0.00 | 66 | 1019.4 |
| 20260901080621 | 20 | 270 | 0.0 | 0.0 | 0.00 | 0.53 | 0.00 | 64 | 1019.4 |
| 20260901075707 | 20 | 270 | 0.0 | 0.0 | 0.00 | 0.53 | 0.00 | 63 | 1019.3 |
| 20260901074722 | 20 | 270 | 0.0 | 0.0 | 0.00 | 0.53 | 0.00 | 62 | 1019.3 |
| 20260901073706 | 21 | 270 | 0.0 | 1.6 | 0.00 | 0.53 | 0.00 | 59 | 1019.4 |
| 20260901072706 | 21 | 270 | 0.0 | 0.0 | 0.00 | 0.53 | 0.00 | 57 | 1019.4 |
| 20260901071804 | 22 | 122 | 3.2 | 4.8 | 0.00 | 0.53 | 0.00 | 54 | 1019.4 |
| 20260901070807 | 22 | 90 | 3.2 | 6.4 | 0.00 | 0.53 | 0.00 | 54 | 1019.2 |
| 20260901065905 | 22 | 135 | 0.0 | 3.2 | 0.00 | 0.53 | 0.00 | 53 | 1019.1 |
| 20260901064907 | 22 | 99 | 4.8 | 8.0 | 0.00 | 0.53 | 0.00 | 54 | 1019.0 |
| 20260901064005 | 21 | 112 | 1.6 | 6.4 | 0.00 | 0.53 | 0.00 | 58 | 1018.9 |
| 20260901063006 | 21 | 112 | 0.0 | 0.0 | 0.00 | 0.53 | 0.00 | 59 | 1018.9 |
| 20260901062006 | 21 | 180 | 0.0 | 0.0 | 0.00 | 0.53 | 0.00 | 58 | 1019.2 |
| 20260901061008 | 21 | 180 | 0.0 | 0.0 | 0.00 | 0.53 | 0.00 | 58 | 1018.8 |
| 20260901060021 | 21 | 202 | 0.0 | 0.0 | 0.00 | 0.53 | 0.00 | 57 | 1018.8 |
| 20260901055004 | 21 | 45 | 1.6 | 3.2 | 0.00 | 0.53 | 0.53 | 56 | 1018.7 |
| 20260901054021 | 21 | 337 | 0.0 | 0.0 | 0.00 | 0.53 | 0.53 | 56 | 1018.9 |
| 20260901052004 | 21 | 22 | 1.6 | 3.2 | 0.00 | 0.53 | 0.53 | 56 | 1018.9 |
| 20260901051020 | 21 | 28 | 4.8 | 6.4 | 0.00 | 0.53 | 0.53 | 56 | 1018.8 |
| 20260901050006 | 21 | 337 | 1.6 | 3.2 | 0.00 | 0.53 | 0.53 | 56 | 1018.8 |
| 20260901044021 | 21 | 347 | 3.2 | 6.4 | 0.00 | 0.53 | 0.53 | 55 | 1018.7 |
| 20260901043022 | 21 | 67 | 0.0 | 0.0 | 0.00 | 0.53 | 0.53 | 54 | 1018.5 |
| 20260901042106 | 22 | 133 | 1.6 | 3.2 | 0.00 | 0.53 | 0.53 | 53 | 1018.7 |
| 20260901041120 | 21 | 45 | 0.0 | 0.0 | 0.00 | 0.53 | 0.53 | 54 | 1018.5 |
| 20260901040205 | 21 | 157 | 0.0 | 0.0 | 0.00 | 0.53 | 0.53 | 54 | 1018.6 |
| 20260901040105 | 21 | 157 | 0.0 | 0.0 | 0.00 | 0.53 | 0.53 | 53 | 1018.6 |
| 20260901035105 | 22 | 247 | 9.7 | 9.7 | 0.00 | 0.53 | 0.53 | 53 | 1018.1 |
| 20260901034108 | 22 | 264 | 11.3 | 17.7 | 0.00 | 0.53 | 0.53 | 54 | 1018.0 |
| 20260901033107 | 22 | 297 | 3.2 | 6.4 | 0.00 | 0.53 | 0.53 | 54 | 1017.7 |
| 20260901032205 | 22 | 253 | 8.0 | 14.5 | 0.00 | 0.53 | 0.53 | 53 | 1017.3 |
| 20260901030206 | 23 | 307 | 3.2 | 8.0 | 0.00 | 0.53 | 0.53 | 54 | 1017.1 |
| 20260901025306 | 23 | 270 | 0.0 | 0.0 | 0.00 | 0.53 | 0.53 | 55 | 1016.7 |
| 20260901024309 | 24 | 277 | 9.7 | 17.7 | 0.00 | 0.53 | 0.53 | 50 | 1016.3 |
| 20260901023323 | 26 | 303 | 9.7 | 12.9 | 0.00 | 0.53 | 0.53 | 44 | 1016.1 |
| 20260901022407 | 27 | 322 | 11.3 | 22.5 | 0.00 | 0.53 | 0.53 | 40 | 1015.7 |
| 20260901021408 | 27 | 90 | 11.3 | 19.3 | 0.00 | 0.53 | 0.53 | 44 | 1015.5 |
| 20260901020409 | 28 | 2 | 6.4 | 9.7 | 0.00 | 0.53 | 0.53 | 37 | 1015.2 |
| 20260901015408 | 29 | 63 | 9.7 | 16.1 | 0.00 | 0.53 | 0.53 | 34 | 1014.5 |
| 20260901013408 | 29 | 59 | 3.2 | 9.7 | 0.00 | 0.53 | 0.53 | 35 | 1014.2 |
| 20260901012423 | 30 | 60 | 8.0 | 12.9 | 0.00 | 0.53 | 0.53 | 35 | 1014.1 |
| 20260901011506 | 30 | 56 | 6.4 | 11.3 | 0.00 | 0.53 | 0.53 | 34 | 1014.2 |
| 20260901005606 | 30 | 80 | 11.3 | 17.7 | 0.00 | 0.53 | 0.53 | 35 | 1014.1 |
| 20260901002623 | 32 | 122 | 3.2 | 9.7 | 0.00 | 0.53 | 0.53 | 32 | 1014.1 |
| 20260901001621 | 32 | 87 | 6.4 | 11.3 | 0.00 | 0.53 | 0.53 | 31 | 1014.3 |
| 20260901000706 | 32 | 75 | 4.8 | 9.7 | 0.00 | 0.53 | 0.53 | 32 | 1014.1 |
| 20260831235706 | 31 | 171 | 1.6 | 6.4 | 0.00 | 0.53 | 0.53 | 33 | 1014.4 |
| 20260831234708 | 32 | 154 | 4.8 | 11.3 | 0.00 | 0.53 | 0.53 | 33 | 1014.4 |
| 20260831233705 | 32 | 147 | 6.4 | 12.9 | 0.00 | 0.53 | 0.53 | 33 | 1014.6 |
| 20260831232707 | 32 | 119 | 1.6 | 4.8 | 0.00 | 0.53 | 0.53 | 32 | 1014.7 |
| 20260831231805 | 33 | 151 | 1.6 | 4.8 | 0.00 | 0.53 | 0.53 | 31 | 1014.8 |
| 20260831230806 | 32 | 53 | 3.2 | 4.8 | 0.00 | 0.53 | 0.53 | 32 | 1014.7 |
| 20260831224807 | 31 | 75 | 9.7 | 14.5 | 0.00 | 0.53 | 0.53 | 33 | 1014.7 |
| 20260831222807 | 30 | 73 | 0.0 | 1.6 | 0.00 | 0.53 | 0.53 | 37 | 1015.1 |
| 20260831221807 | 29 | 73 | 9.7 | 19.3 | 0.00 | 0.53 | 0.53 | 37 | 1014.9 |
| 20260831214905 | 30 | 71 | 9.7 | 16.1 | 0.00 | 0.53 | 0.53 | 36 | 1015.3 |
| 20260831213921 | 30 | 43 | 11.3 | 25.7 | 0.00 | 0.53 | 0.53 | 37 | 1015.3 |
| 20260831212907 | 30 | 59 | 11.3 | 16.1 | 0.00 | 0.53 | 0.53 | 38 | 1015.6 |
| 20260831211006 | 30 | 66 | 11.3 | 22.5 | 0.03 | 0.53 | 0.53 | 38 | 1015.9 |
| 20260831210024 | 28 | 92 | 3.2 | 6.4 | 0.03 | 0.53 | 0.53 | 40 | 1016.1 |
| 20260831205022 | 28 | 112 | 3.2 | 4.8 | 0.03 | 0.53 | 0.53 | 42 | 1016.6 |
| 20260831204104 | 28 | 77 | 4.8 | 11.3 | 0.05 | 0.53 | 0.53 | 44 | 1016.6 |
| 20260831203106 | 27 | 67 | 0.0 | 1.6 | 0.05 | 0.53 | 0.53 | 46 | 1016.9 |
| 20260831202104 | 26 | 1 | 1.6 | 6.4 | 0.05 | 0.53 | 0.53 | 55 | 1017.0 |
| 20260831201124 | 24 | 302 | 9.7 | 14.5 | 0.03 | 0.51 | 0.51 | 67 | 1017.2 |
| 20260831200221 | 23 | 336 | 3.2 | 6.4 | 0.05 | 0.51 | 0.51 | 70 | 1016.7 |
| 20260831195307 | 23 | 103 | 4.8 | 9.7 | 0.08 | 0.51 | 0.51 | 71 | 1017.4 |
| 20260831194308 | 24 | 166 | 8.0 | 11.3 | 0.05 | 0.48 | 0.48 | 69 | 1017.6 |
| 20260831192306 | 23 | 45 | 0.0 | 0.0 | 0.46 | 0.48 | 0.48 | 75 | 1017.2 |
| 20260831191405 | 23 | 247 | 0.0 | 0.0 | 0.48 | 0.48 | 0.48 | 73 | 1017.4 |
| 20260831190405 | 23 | 255 | 1.6 | 6.4 | 0.46 | 0.46 | 0.46 | 70 | 1017.8 |
| 20260831185421 | 23 | 90 | 3.2 | 6.4 | 0.43 | 0.43 | 0.43 | 71 | 1017.8 |
| 20260831184508 | 22 | 67 | 3.2 | 8.0 | 0.43 | 0.43 | 0.43 | 73 | 1017.9 |
| 20260831183605 | 22 | 14 | 4.8 | 8.0 | 0.43 | 0.43 | 0.43 | 68 | 1017.9 |
| 20260831182624 | 26 | 98 | 6.4 | 11.3 | 0.13 | 0.13 | 0.10 | 52 | 1018.2 |
| 20260831180706 | 27 | 98 | 9.7 | 14.5 | 0.00 | 0.00 | 0.00 | 44 | 1017.3 |
| 20260831175707 | 28 | 114 | 17.7 | 25.7 | 0.00 | 0.00 | 0.00 | 42 | 1017.3 |
| 20260831174804 | 29 | 108 | 11.3 | 20.9 | 0.00 | 0.00 | 0.00 | 38 | 1017.3 |
| 20260831172905 | 29 | 89 | 8.0 | 12.9 | 0.00 | 0.00 | 0.00 | 39 | 1017.2 |
| 20260831172820 | 29 | 83 | 11.3 | 16.1 | 0.00 | 0.00 | 0.00 | 38 | 1017.2 |
| 20260831171907 | 30 | 86 | 6.4 | 12.9 | 0.00 | 0.00 | 0.00 | 38 | 1017.2 |
| 20260831171806 | 30 | 99 | 8.0 | 11.3 | 0.00 | 0.00 | 0.00 | 38 | 1017.3 |
| 20260831170822 | 30 | 59 | 8.0 | 12.9 | 0.00 | 0.00 | 0.00 | 36 | 1017.3 |
| 20260831170706 | 30 | 66 | 8.0 | 12.9 | 0.00 | 0.00 | 0.00 | 37 | 1017.3 |
| 20260831164707 | 29 | 95 | 8.0 | 16.1 | 0.00 | 0.00 | 0.00 | 38 | 1017.4 |
| 20260831163706 | 28 | 87 | 8.0 | 12.9 | 0.00 | 0.00 | 0.00 | 39 | 1017.6 |
| 20260831162705 | 28 | 83 | 11.3 | 19.3 | 0.00 | 0.00 | 0.00 | 38 | 1017.7 |
| 20260831161707 | 29 | 72 | 11.3 | 19.3 | 0.00 | 0.00 | 0.00 | 38 | 1017.6 |
| 20260831160704 | 28 | 81 | 8.0 | 14.5 | 0.00 | 0.00 | 0.00 | 38 | 1017.5 |
| 20260831160605 | 28 | 71 | 6.4 | 12.9 | 0.00 | 0.00 | 0.00 | 39 | 1017.4 |
| 20260831155622 | 28 | 113 | 4.8 | 8.0 | 0.00 | 0.00 | 0.00 | 39 | 1017.5 |
| 20260831154606 | 28 | 97 | 3.2 | 6.4 | 0.00 | 0.00 | 0.00 | 35 | 1017.5 |
| 20260831153621 | 27 | 225 | 0.0 | 0.0 | 0.00 | 0.00 | 0.00 | 35 | 1017.6 |
| 20260831152622 | 26 | 247 | 0.0 | 0.0 | 0.00 | 0.00 | 0.00 | 36 | 1017.6 |
| 20260831151703 | 26 | 246 | 3.2 | 4.8 | 0.00 | 0.00 | 0.00 | 36 | 1017.6 |
| 20260831150706 | 25 | 292 | 1.6 | 6.4 | 0.00 | 0.00 | 0.00 | 36 | 1017.5 |
| 20260831145706 | 25 | 292 | 1.6 | 4.8 | 0.00 | 0.00 | 0.00 | 37 | 1017.6 |
| 20260831144805 | 24 | 315 | 1.6 | 3.2 | 0.00 | 0.00 | 0.00 | 38 | 1017.7 |
| 20260831142806 | 23 | 292 | 0.0 | 0.0 | 0.00 | 0.00 | 0.00 | 41 | 1017.5 |
| 20260831141821 | 22 | 303 | 0.0 | 1.6 | 0.00 | 0.00 | 0.00 | 43 | 1017.5 |
| 20260831140821 | 22 | 292 | 0.0 | 0.0 | 0.00 | 0.00 | 0.00 | 44 | 1017.4 |
| 20260831135907 | 21 | 292 | 0.0 | 0.0 | 0.00 | 0.00 | 0.00 | 45 | 1017.2 |
| 20260831135003 | 21 | 292 | 0.0 | 0.0 | 0.00 | 0.00 | 0.00 | 44 | 1017.2 |
| 20260831134019 | 20 | 302 | 4.8 | 4.8 | 0.00 | 0.00 | 0.00 | 48 | 1016.9 |
| 20260831133021 | 20 | 315 | 0.0 | 0.0 | 0.00 | 0.00 | 0.00 | 45 | 1016.8 |
| 20260831132107 | 20 | 315 | 0.0 | 0.0 | 0.00 | 0.00 | 0.00 | 46 | 1016.7 |
| 20260831125220 | 20 | 22 | 0.0 | 1.6 | 0.00 | 0.00 | 0.00 | 47 | 1016.4 |
| 20260831124303 | 20 | 337 | 0.0 | 0.0 | 0.00 | 0.00 | 0.00 | 46 | 1016.3 |
| 20260831123304 | 20 | 337 | 1.6 | 3.2 | 0.00 | 0.00 | 0.00 | 47 | 1016.3 |
| 20260831122204 | 21 | 337 | 0.0 | 1.6 | 0.00 | 0.00 | 0.00 | 45 | 1016.0 |
| 20260831121219 | 21 | 337 | 0.0 | 0.0 | 0.00 | 0.00 | 0.00 | 41 | 1016.2 |
| 20260831120304 | 21 | 22 | 0.0 | 0.0 | 0.00 | 0.00 | 0.00 | 40 | 1016.0 |
| 20260831115319 | 21 | 112 | 1.6 | 3.2 | 0.00 | 0.00 | 0.00 | 40 | 1016.0 |
| 20260831114406 | 21 | 236 | 4.8 | 8.0 | 0.00 | 0.00 | 0.00 | 42 | 1015.9 |
| 20260831113405 | 21 | 315 | 0.0 | 0.0 | 0.00 | 0.00 | 0.00 | 45 | 1015.9 |
| 20260831112426 | 21 | 315 | 0.0 | 0.0 | 0.00 | 0.00 | 0.00 | 46 | 1015.9 |
| 20260831111520 | 21 | 331 | 0.0 | 3.2 | 0.00 | 0.00 | 0.00 | 43 | 1016.0 |
| 20260831110604 | 21 | 45 | 1.6 | 3.2 | 0.00 | 0.00 | 0.00 | 42 | 1015.9 |
| 20260831105622 | 21 | 67 | 1.6 | 6.4 | 0.00 | 0.00 | 0.00 | 41 | 1016.2 |
| 20260831104703 | 21 | 247 | 1.6 | 3.2 | 0.00 | 0.00 | 0.00 | 42 | 1016.0 |